Regional Weather Roundup
Issued by NWS

Home | Current Version | Previous Version | Graphics & Text | Print | Product List | Glossary On
Versions: 1 2 3 4 5 6 7 8 9 10 11 12 13 14 15 16 17 18 19 20 21 22 23 24 25 26 27 28 29 30 31 32 33 34 35 36 37 38 39 40 41 42 43 44 45 46 47 48 49 50
000
ASUS43 KLOT 230403
RWRIL

ILLINOIS REGIONAL WEATHER ROUNDUP
NATIONAL WEATHER SERVICE CHICAGO/ROMEOVILLE IL
1000 PM CST SUN JAN 22 2017

NOTE: "FAIR" INDICATES FEW OR NO CLOUDS BELOW 12,000 FEET WITH NO
SIGNIFICANT WEATHER AND/OR OBSTRUCTIONS TO VISIBILITY.

* THESE STATIONS ARE NOT UNDER NWS QUALITY CONTROL. THEY ALSO MAY NOT
  REPORT WEATHER SUCH AS PRECIPITATION OR FOG.

ILZ001-002-007-009-015-016-024-230500-
NORTHWEST ILLINOIS

CITY           SKY/WX    TMP DP  RH WIND       PRES   REMARKS
MOLINE         CLOUDY    38  34  85 NW7       29.75R WCI  33
STERLING*      CLOUDY    38  36  92 N6        29.74R WCI  33
SAVANNA*       CLOUDY    38  36  92 N6        29.75R WCI  33
$$

ILZ003-004-008-010-011-017-018-230500-
NORTH CENTRAL ILLINOIS

CITY           SKY/WX    TMP DP  RH WIND       PRES   REMARKS
ROCKFORD       CLOUDY    38  35  89 N3        29.73R FOG
FREEPORT*      CLOUDY    37  35  94 N9        29.75R WCI  30
ROCHELLE*      CLOUDY    36  35  98 CALM      29.72R FOG
DE KALB*       CLOUDY    37  36  94 NW3       29.71R
PERU*          CLOUDY    37  34  90 NE7       29.73R WCI  31
$$

ILZ005-006-012>014-019>023-230500-
NORTHEAST ILLINOIS

CITY           SKY/WX    TMP DP  RH WIND       PRES   REMARKS
CHICAGO-OHARE  CLOUDY    40  38  93 N6        29.68R
CHICAGO-MIDWAY CLOUDY    42  35  76 N9        29.68R
AURORA         CLOUDY    38  36  92 NW7       29.70R FOG     WCI  33
LANSING*       CLOUDY    40  39  95 N7        29.67R
JOLIET*        CLOUDY    42  40  91 N5        29.69R FOG
WAUKEGAN       CLOUDY    39  37  92 N5        29.70R FOG
DUPAGE AIRPORT CLOUDY    38  36  92 N6        29.69R WCI  33
KANKAKEE*      CLOUDY    40  38  92 CALM      29.67R
WHEELING       CLOUDY    40  37  89 N8        29.70R
MORRIS*        CLOUDY    38  37  94 N5        29.68R FOG     WCI  34
ROMEOVILLE*    CLOUDY    40  39  97 N7        29.69R
NORTHERLY ISL    N/A     37  36  96 N7          N/A  WCI  32
$$

LMZ740>746-230500-
SOUTHERN LAKE MICHIGAN

STATION/POSITION SKY/WX   TEMP    WIND        PRES    VSBY  WAVE
                          AIR SEA DIR/SP/G                  HT/PER
                          (F)     (DEG/KT/KT) (MB)    (MI)  (FT/S)
HARRISON CRIB              35     340/ 12/ 12   N/A
BURNHAM HARBOR             37     360/  7/  8   N/A
CALUMET HARBOR             35     330/  7/ 10 1004.6R
BURNS HARBOR               36      10/  9/ 10 1005.4R
MICHIGAN CITY              35      50/  6/  7   N/A
$$

ILZ025>027-034>036-040-047-049-050-058-095>099-230500-
WEST-CENTRAL ILLINOIS

CITY           SKY/WX    TMP DP  RH WIND       PRES   REMARKS
QUINCY         CLOUDY    37  34  89 NW10      29.77R WCI  30
GALESBURG*     CLOUDY    36  36 100 NW9       29.75R FOG     WCI  29
MACOMB*        CLOUDY    36  35  97 NW12      29.77R WCI  27
JACKSONVILLE*  CLOUDY    37  35  92 NW9       29.74R FOG     WCI  31
PITTSFIELD*    CLOUDY    38  35  89 NW7       29.77R WCI  33
$$

ILZ028>032-037-038-041>044-048-051>054-059>061-230500-
CENTRAL ILLINOIS

CITY           SKY/WX    TMP DP  RH WIND       PRES   REMARKS
BLOOMINGTON    CLOUDY    38  36  92 N14       29.68R WCI  30
DECATUR        CLOUDY    41  39  93 N15       29.67R
PEORIA         PTCLDY    40  35  83 VRB6      29.72R
LACON*         CLOUDY    39  37  92 N7        29.72R WCI  34
LINCOLN*       CLOUDY    40  38  93 NW6       29.70R
SPRINGFIELD    MOCLDY    40  35  83 NW9       29.72R
TAYLORVILLE    CLOUDY    40  37  89 N15       29.69R
$$

ILZ033-039-045-046-055>057-062-063-230500-
EAST-CENTRAL ILLINOIS

CITY           SKY/WX    TMP DP  RH WIND       PRES   REMARKS
CHAMPAIGN      CLOUDY    42  38  85 N14       29.64R
RANTOUL*       CLOUDY    42  41  93 N8        29.66R FOG
MATTOON        CLOUDY    42  41  96 N15       29.62R FOG
PARIS*         CLOUDY    44  43  96 N13       29.61S FOG
$$

ILZ079-100>102-230500-
SOUTHWEST ILLINOIS

CITY           SKY/WX    TMP DP  RH WIND       PRES   REMARKS
ALTON          CLEAR     41  37  87 N14       29.71R
BELLEVILLE     CLOUDY    44  37  76 NW20G26   29.66S
CAHOKIA*       CLOUDY    44  35  70 N20       29.70S
SPARTA*        CLOUDY    44  37  76 N12G25    29.66R
$$

ILZ064>066-069>071-074>076-080>082-084>086-088>090-092>094-230500-
SOUTH-CENTRAL ILLINOIS

CITY           SKY/WX    TMP DP  RH WIND       PRES   REMARKS
CARBONDALE     MOCLDY    47  43  86 NW21G30   29.58S
CAIRO*         CLOUDY    51  47  86 N25G35    29.51S
EFFINGHAM*     CLOUDY    45  45  99 NW13G20   29.63R FOG
MARION         CLOUDY    50  46  87 N12G24    29.58R
MT. VERNON     CLOUDY    46  42  86 VRB7      29.59S
CENTRALIA*     CLOUDY    45  41  86 N17G24    29.62R
SALEM*         CLOUDY    46  41  82 N15       29.62R
METROPOLIS*    CLOUDY    53  48  85 N21G26    29.50R
$$

ILZ067-068-072-073-078-083-087-091-230500-
SOUTHEAST ILLINOIS

CITY           SKY/WX    TMP DP  RH WIND       PRES   REMARKS
LAWRENCEVILLE  PTCLDY    50  49  96 N21       29.52S
FLORA*         CLOUDY    48  45  87 NW16      29.59S FOG
FAIRFIELD*     CLOUDY    48  45  88 N15G23    29.55S FOG
HARRISBURG*    CLOUDY    49  47  92 N15G25    29.53R FOG
ROBINSON*      CLOUDY    48  46  93 N15       29.55S
CARMI*         MOCLDY    49  48  94 N16G25    29.51R FOG
$$

ABBREVIATIONS USED IN REMARKS
   TC - TEMPERATURE IN CELSIUS
  WCI - WIND CHILL INDEX
   HX - HEAT INDEX
  VSB - VISIBILITY
$$





USA.gov is the U.S. government's official web portal to all federal, state and local government web resources and services.